Weather History for Butte, MT

Change the Weather History Date:

Monday, June 2, 2014

  Actual Average Record
Temperature  
Mean Temperature 54 °F 52 °F  
Max Temperature 72 °F 66 °F 84 °F (1986)
Min Temperature 36 °F 39 °F 25 °F (1951)
Degree Days  
Heating Degree Days 11 13  
Month to date heating degree days 26 26  
Since 1 June heating degree days 26 26  
Since 1 July heating degree days 8775 8958  
Cooling Degree Days 0 0  
Month to date cooling degree days 0 0  
Year to date cooling degree days 0 0  
Since 1 June cooling degree days 0 0  
Growing Degree Days 4 (Base 50)    
Moisture  
Dew Point 35 °F    
Average Humidity 54    
Maximum Humidity 92    
Minimum Humidity 16    
Precipitation  
Precipitation 0.00 in 0.10 in 1.16 in (1953)
Month to date precipitation 0.34 0.19  
Year to date precipitation 4.62 5.10  
Sea Level Pressure  
Sea Level Pressure 29.96 in    
Wind  
Wind Speed 4 mph (ESE)    
Max Wind Speed 16 mph    
Max Gust Speed 22 mph    
Visibility 10 miles    
Events      
T = Trace of Precipitation, MM = Missing Value Source: NWS Daily Summary

Daily Weather History Graph

Daily Weather History Graph

Search for Another Location

Airport:

Trip Planner

Search our weather history database for the weather conditions in past years. The results will help you decide how hot, cold, wet, or windy it might be!

Date:

Astronomy

Jun. 02, 2014 Rise Set
Actual Time 5:42 AM MDT 9:14 PM MDT
Civil Twilight 5:04 AM MDT 9:51 PM MDT
Nautical Twilight 4:15 AM MDT 10:41 PM MDT
Astronomical Twilight 3:10 AM MDT 11:47 PM MDT
Moon 10:22 AM MDT (6/2) 12:02 AM MDT (6/2)
Length of Visible Light 16h 46m
Length of Day
15h 31m
Waxing Crescent, 22% of the Moon is Illuminated
Jun 2
Waxing Crescent
Jun 5
First Quarter
Jun 12
Full
Jun 19
Last Quarter
Jun 27
New

Hourly Weather History & Observations

Time (MDT) Temp. Windchill Dew Point Humidity Pressure Visibility Wind Dir Wind Speed Gust Speed Precip Events Conditions
12:53 AM 41.0 °F 37.1 °F 37.9 °F 89% 30.06 in 10.0 mi SE 5.8 mph - N/A   Partly Cloudy
1:53 AM 39.9 °F 35.1 °F 37.9 °F 93% 30.05 in 10.0 mi SE 6.9 mph - N/A   Overcast
2:53 AM 39.0 °F 36.8 °F 37.0 °F 93% 30.06 in 10.0 mi SE 3.5 mph - N/A   Mostly Cloudy
3:53 AM 39.0 °F 36.8 °F 37.0 °F 93% 30.04 in 10.0 mi SE 3.5 mph - N/A   Overcast
4:53 AM 39.0 °F - 37.0 °F 93% 30.05 in 10.0 mi Calm Calm - N/A   Overcast
5:53 AM 37.9 °F 33.5 °F 36.0 °F 93% 30.04 in 10.0 mi SE 5.8 mph - N/A   Partly Cloudy
6:53 AM 37.9 °F - 36.0 °F 93% 30.06 in 10.0 mi Calm Calm - N/A   Clear
7:53 AM 44.1 °F - 39.9 °F 85% 30.05 in 10.0 mi Calm Calm - N/A   Scattered Clouds
8:53 AM 48.0 °F - 41.0 °F 77% 30.03 in 10.0 mi Calm Calm - N/A   Clear
9:53 AM 55.9 °F - 39.0 °F 53% 30.00 in 10.0 mi Calm Calm - N/A   Clear
10:53 AM 60.8 °F - 39.2 °F 45% 30.06 in 10.0 mi Calm Calm - N/A   Clear
11:53 AM 64.4 °F - 39.2 °F 40% 30.04 in 10.0 mi Variable 6.9 mph - N/A   Partly Cloudy
12:53 PM 64.9 °F - 37.0 °F 36% 29.94 in 10.0 mi Variable 5.8 mph - N/A   Overcast
1:53 PM 66.2 °F - 35.6 °F 32% 30.01 in 10.0 mi Variable 4.6 mph - N/A   Overcast
2:53 PM 68.0 °F - 30.2 °F 24% 29.99 in 10.0 mi SW 9.2 mph - N/A   Overcast
3:53 PM 70.0 °F - 30.0 °F 23% 29.87 in 10.0 mi SE 9.2 mph - N/A   Partly Cloudy
4:53 PM 72.0 °F - 23.0 °F 16% 29.85 in 10.0 mi North - - N/A   Clear
5:53 PM 70.0 °F - 25.0 °F 18% 29.85 in 10.0 mi WNW 5.8 mph - N/A   Partly Cloudy
6:53 PM 70.0 °F - 26.1 °F 19% 29.84 in 10.0 mi NNW 5.8 mph - N/A   Overcast
7:53 PM 70.0 °F - 26.1 °F 19% 29.81 in 10.0 mi NNW 9.2 mph - N/A   Mostly Cloudy
8:53 PM 68.0 °F - 28.0 °F 22% 29.82 in 10.0 mi North 3.5 mph - N/A   Scattered Clouds
9:53 PM 60.1 °F - 36.0 °F 41% 29.83 in 10.0 mi East 3.5 mph - N/A   Partly Cloudy
10:53 PM 54.0 °F - 37.9 °F 55% 29.83 in 10.0 mi ENE 4.6 mph - N/A   Mostly Cloudy
11:53 PM 52.0 °F - 37.0 °F 57% 29.82 in 10.0 mi ESE 4.6 mph - N/A   Clear